Date,TemperatureHighF,TemperatureAvgF,TemperatureLowF,DewpointHighF,DewpointAvgF,DewpointLowF,HumidityHigh,HumidityAvg,HumidityLow,PressureMaxIn,PressureMinIn,WindSpeedMaxMPH,WindSpeedAvgMPH,GustSpeedMaxMPH,PrecipitationSumIn
2012-1-1,48,39,30,42,33,22,94,79,61,30.07,29.61,26,8,28,0.10
2012-1-2,30,24,20,24,20,13,92,81,70,30.30,30.03,22,7,22,0.00
2012-1-3,26,21,16,17,14,10,88,73,52,30.44,30.20,14,4,15,0.00
2012-1-4,40,31,22,30,23,14,83,71,61,30.22,29.95,15,3,15,0.00
2012-1-5,49,37,26,36,30,24,90,77,58,30.08,29.83,14,3,19,0.00
2012-1-6,56,45,39,40,36,33,83,72,53,29.83,29.72,13,3,16,0.00
2012-1-7,45,38,29,36,32,26,92,78,58,30.23,29.73,11,2,12,0.00
2012-1-8,42,33,23,29,27,21,96,79,56,30.38,30.23,7,1,7,0.00
2012-1-9,47,35,23,32,27,22,96,75,47,30.30,30.04,12,2,14,0.00
2012-1-10,51,37,27,37,31,24,93,79,57,30.11,29.87,10,1,15,0.00
2012-1-11,40,38,31,39,35,28,97,88,78,29.87,29.44,11,2,13,0.49
2012-1-12,39,30,16,38,28,12,97,93,81,29.58,29.41,22,4,22,0.03
2012-1-13,19,17,14,16,14,12,92,88,83,30.11,29.57,22,7,23,0.00
2012-1-14,22,17,7,16,12,4,90,83,71,30.30,30.11,10,2,11,0.01
2012-1-15,30,17,3,22,11,0,92,78,55,30.51,30.21,15,2,16,0.00
2012-1-16,50,40,28,49,35,22,96,83,71,30.22,29.79,22,6,22,0.00
2012-1-17,42,32,26,40,29,21,95,89,83,30.15,29.62,23,7,26,1.24
2012-1-18,27,24,21,22,18,15,84,78,70,30.33,30.01,15,3,15,0.00
2012-1-19,30,22,5,27,18,3,94,85,78,30.20,29.86,19,4,20,0.00
2012-1-20,18,12,2,15,9,-2,92,87,74,30.30,30.05,18,3,18,0.00
2012-1-21,23,18,14,17,14,11,92,86,78,30.31,30.02,11,3,11,0.00
2012-1-22,46,32,19,46,30,17,99,95,89,30.24,29.67,19,5,19,0.16
2012-1-23,50,42,33,49,39,28,98,90,79,29.94,29.47,25,8,25,0.22
2012-1-24,34,31,26,29,27,24,93,83,76,30.36,29.94,19,4,19,0.00
2012-1-25,33,29,22,32,27,20,96,94,87,30.39,30.10,8,1,8,0.01
2012-1-26,34,33,33,34,33,32,98,97,96,30.10,29.57,8,2,11,0.41
2012-1-27,41,36,33,34,32,29,98,88,64,30.03,29.58,14,4,16,0.05
2012-1-28,35,33,31,32,26,19,97,78,52,30.21,29.87,22,5,22,0.04
2012-1-29,36,31,25,30,24,22,94,76,66,30.29,30.02,20,5,22,0.01
2012-1-30,50,37,21,37,29,19,95,74,59,30.29,29.97,18,4,18,0.00
2012-1-31,59,51,45,51,41,33,94,69,54,30.01,29.88,21,6,24,0.04
2012-2-1,54,46,36,52,42,34,95,87,69,30.11,29.89,13,2,15,0.06
2012-2-2,46,36,28,38,33,27,98,88,71,30.40,30.11,8,1,8,0.00
2012-2-3,53,38,26,40,34,24,98,86,59,30.48,30.32,10,1,10,0.01
2012-2-4,39,36,33,37,34,32,97,94,89,30.33,30.13,14,4,15,0.17
2012-2-5,47,34,24,34,29,23,98,83,51,30.27,30.14,7,1,7,0.00
2012-2-6,46,33,23,37,30,22,98,88,64,30.25,30.14,13,2,13,0.00
2012-2-7,35,31,30,31,28,27,92,89,84,30.29,30.18,8,2,11,0.00
2012-2-8,34,31,29,30,27,22,96,87,64,30.36,30.30,8,2,10,0.07
2012-2-9,31,28,24,25,22,21,88,79,69,30.35,30.19,13,3,13,0.00
2012-2-10,34,31,23,32,27,19,96,85,73,30.19,29.88,19,4,19,0.02
2012-2-11,23,16,12,19,10,7,86,78,67,30.38,29.98,14,4,15,0.00
2012-2-12,32,22,14,22,14,7,81,72,62,30.36,30.26,19,4,19,0.01
2012-2-13,34,27,17,27,18,13,94,70,51,30.27,29.98,15,2,15,0.00
2012-2-14,34,32,28,31,30,27,95,91,87,30.10,29.88,9,2,10,0.10
2012-2-15,42,37,33,39,34,30,94,88,81,30.20,30.01,12,3,12,0.18
2012-2-16,44,41,32,41,39,30,98,93,79,30.15,29.94,11,2,11,0.09
2012-2-17,48,38,28,32,30,26,96,75,50,30.21,30.04,13,2,13,0.01
2012-2-18,41,35,27,32,28,21,90,75,52,30.18,30.03,12,2,12,0.00
2012-2-19,36,29,22,25,22,20,91,77,60,30.24,30.09,14,3,14,0.00
2012-2-20,42,30,18,29,23,16,95,78,57,30.37,30.04,11,2,13,0.00
2012-2-21,45,41,36,41,36,26,94,84,62,30.04,29.71,18,6,20,0.11
2012-2-22,55,43,34,40,36,32,93,78,48,29.77,29.39,19,2,19,0.00
2012-2-23,42,36,28,40,35,27,98,94,87,29.60,29.41,16,3,16,0.30
2012-2-24,42,36,29,40,33,20,97,88,68,29.93,29.32,25,7,28,0.00
2012-2-25,31,27,21,23,19,17,86,72,59,30.38,29.93,20,5,20,0.00
2012-2-26,49,34,19,28,23,17,92,65,40,30.41,30.12,18,4,18,0.00
2012-2-27,43,39,27,31,26,22,83,61,45,30.50,30.12,19,4,21,0.00
2012-2-28,49,36,22,34,27,19,93,71,47,30.50,29.95,12,2,12,0.00
2012-2-29,68,53,40,59,42,31,99,70,35,29.95,29.47,22,5,24,0.42
2012-3-1,42,37,33,33,31,29,89,78,68,29.88,29.64,22,5,22,0.00
2012-3-2,59,42,32,54,38,30,98,85,75,29.84,29.20,30,5,32,0.62
2012-3-3,36,33,30,32,27,24,90,80,71,29.84,29.57,21,7,22,0.00
2012-3-4,34,31,28,29,26,23,92,84,67,29.92,29.81,12,2,12,0.02
2012-3-5,37,31,26,26,22,18,93,71,50,30.42,29.91,12,2,13,0.00
2012-3-6,65,47,30,38,31,24,79,55,35,30.41,30.08,21,6,21,0.00
2012-3-7,68,58,49,49,39,28,65,48,37,30.17,29.94,32,8,32,0.00
2012-3-8,61,48,34,55,42,28,94,80,64,30.24,29.84,22,6,23,0.55
2012-3-9,42,36,26,29,21,14,80,58,33,30.55,30.22,19,4,19,0.00
2012-3-10,54,38,23,30,23,18,85,58,33,30.55,30.33,14,3,15,0.00
2012-3-11,69,50,35,40,32,26,69,52,28,30.35,30.14,15,2,15,0.00
2012-3-12,68,60,51,59,53,37,94,81,47,30.14,29.78,26,7,26,0.09
2012-3-13,72,60,46,58,50,43,97,70,44,30.08,29.86,11,2,12,0.00
2012-3-14,81,62,46,60,51,42,92,70,40,30.11,29.98,15,2,16,0.00
2012-3-15,81,70,60,65,59,54,93,70,50,30.04,29.93,16,4,18,0.00
2012-3-16,80,66,56,60,56,54,94,73,46,30.09,30.00,15,3,15,0.00
2012-3-17,76,64,51,61,56,50,98,77,54,30.13,30.01,13,2,15,0.00
2012-3-18,80,68,61,62,58,54,90,73,42,30.09,29.97,13,2,13,0.01
2012-3-19,83,71,60,63,59,57,90,68,42,30.05,29.94,15,2,16,0.00
2012-3-20,85,74,64,60,57,54,73,57,37,30.08,29.96,13,2,15,0.00
2012-3-21,87,74,64,59,56,53,74,55,34,30.11,29.99,11,1,12,0.00
2012-3-22,84,71,60,60,57,55,85,63,39,30.09,29.97,13,2,13,0.00
2012-3-23,66,62,55,62,59,52,98,91,77,30.01,29.77,9,1,14,0.79
2012-3-24,68,58,51,55,52,50,97,84,58,29.84,29.71,9,1,11,0.15
2012-3-25,70,60,54,59,54,52,96,81,57,30.02,29.84,11,1,11,0.00
2012-3-26,55,47,40,52,35,27,88,65,46,30.33,30.02,16,4,16,0.00
2012-3-27,64,48,33,42,30,20,69,51,33,30.33,29.92,14,4,15,0.00
2012-3-28,71,63,49,57,45,33,83,55,26,29.97,29.80,21,5,25,0.00
2012-3-29,60,49,35,42,38,34,96,68,46,30.10,29.97,10,2,11,0.00
2012-3-30,74,56,42,61,48,36,92,74,57,29.99,29.61,19,4,19,0.01
2012-3-31,53,45,40,44,40,37,95,85,65,29.95,29.81,9,2,10,0.00
2012-4-1,76,54,40,63,48,38,92,81,57,29.90,29.61,14,2,16,0.00
2012-4-2,66,54,44,52,41,36,83,64,37,29.95,29.70,18,4,18,0.00
2012-4-3,83,65,48,62,51,41,80,61,43,29.93,29.72,12,2,12,0.09
2012-4-4,67,58,46,54,45,31,81,63,27,29.86,29.77,20,4,20,0.00
2012-4-5,55,47,41,37,33,31,73,59,41,30.07,29.83,24,4,24,0.00
2012-4-6,59,45,32,34,30,25,86,59,29,30.27,30.07,14,3,14,0.00
2012-4-7,67,51,30,34,25,11,87,44,12,30.32,30.12,12,2,12,0.00
2012-4-8,62,57,49,44,32,20,77,43,22,30.19,30.06,23,4,26,0.00
2012-4-9,64,53,40,39,29,20,82,46,19,30.07,29.87,27,4,29,0.00
2012-4-10,50,41,34,28,25,20,70,52,38,30.10,29.91,22,4,22,0.00
2012-4-11,55,41,30,32,27,23,80,60,33,30.25,30.08,18,2,18,0.00
2012-4-12,60,45,29,37,31,27,94,62,33,30.31,30.14,11,1,11,0.00
2012-4-13,65,52,34,36,31,26,88,50,24,30.23,30.08,12,2,13,0.00
2012-4-14,60,57,54,58,50,34,96,78,46,30.09,29.88,15,3,16,0.25
2012-4-15,78,69,59,62,58,56,96,70,46,29.89,29.73,28,7,29,0.00
2012-4-16,70,61,51,62,51,43,94,71,57,30.18,29.64,33,8,36,0.22
2012-4-17,63,50,38,44,40,36,97,73,39,30.35,30.18,11,1,13,0.00
2012-4-18,69,54,38,43,39,35,91,61,34,30.28,30.00,11,1,11,0.00
2012-4-19,77,64,51,50,45,42,72,51,30,30.02,29.80,14,3,16,0.00
2012-4-20,71,58,43,54,48,42,96,70,49,29.84,29.67,23,5,23,0.29
2012-4-21,56,46,40,44,39,36,97,77,48,29.97,29.84,11,2,11,0.00
2012-4-22,52,45,40,40,32,19,91,63,37,29.97,29.92,18,3,18,0.00
2012-4-23,58,46,35,28,21,12,65,40,20,29.96,29.76,28,6,28,0.00
2012-4-24,64,50,36,33,24,18,59,38,20,29.76,29.68,22,4,22,0.00
2012-4-25,67,54,43,56,44,32,91,68,45,29.78,29.63,12,2,13,0.01
2012-4-26,65,55,39,55,45,16,98,72,27,30.07,29.55,23,4,26,0.09
2012-4-27,57,45,30,31,27,23,83,53,27,30.27,30.07,13,2,16,0.00
2012-4-28,50,46,41,41,35,28,88,67,45,30.18,29.99,19,4,19,0.23
2012-4-29,64,52,40,47,40,34,87,66,50,30.25,30.09,14,4,16,0.00
2012-4-30,80,64,53,63,56,40,97,75,54,30.09,29.81,24,3,24,0.67
2012-5-1,66,61,55,62,58,54,97,91,72,30.04,29.83,11,2,11,0.44
2012-5-2,84,73,61,69,66,60,98,80,56,29.93,29.84,22,3,24,0.01
2012-5-3,86,77,67,67,64,58,92,65,43,29.99,29.84,22,4,26,0.00
2012-5-4,82,72,66,69,64,58,90,77,59,29.92,29.81,11,2,14,0.00
2012-5-5,76,67,61,65,62,57,96,85,67,29.99,29.83,13,2,14,0.00
2012-5-6,82,68,54,64,56,49,94,69,48,30.03,29.81,10,2,13,0.00
2012-5-7,75,65,52,65,58,48,96,79,63,29.88,29.73,13,2,14,0.10
2012-5-8,72,63,54,59,52,45,95,71,42,29.85,29.77,19,3,23,0.00
2012-5-9,65,58,49,49,46,39,82,65,49,29.89,29.80,18,3,19,0.00
2012-5-10,69,55,39,46,38,30,94,59,24,30.02,29.88,15,2,15,0.00
2012-5-11,76,59,39,44,38,30,95,53,21,30.16,30.02,12,1,13,0.00
2012-5-12,78,64,52,57,48,44,82,57,32,30.22,30.11,12,1,12,0.00
2012-5-13,78,65,53,61,54,51,97,71,40,30.15,30.00,9,1,10,0.00
2012-5-14,80,66,51,57,51,43,97,63,33,30.05,29.93,9,1,10,0.00
2012-5-15,82,67,46,50,42,35,93,47,19,29.99,29.84,13,1,13,0.00
2012-5-16,74,66,55,56,42,32,72,43,23,30.05,29.83,12,2,12,0.00
2012-5-17,74,61,42,43,37,30,90,46,21,30.16,30.04,16,2,16,0.00
2012-5-18,83,66,46,46,40,31,73,42,16,30.11,29.97,13,1,13,0.00
2012-5-19,88,71,50,58,52,42,84,53,29,30.08,29.98,9,1,11,0.00
2012-5-20,89,77,60,63,56,52,79,51,30,30.08,29.91,12,2,13,0.00
2012-5-21,75,66,56,64,58,50,96,77,50,30.00,29.92,16,3,16,0.00
2012-5-22,76,63,51,54,49,43,90,64,31,30.00,29.86,9,1,11,0.00
2012-5-23,82,66,48,58,51,46,94,63,34,29.91,29.76,12,1,16,0.00
2012-5-24,86,76,62,64,56,46,87,55,26,29.85,29.69,21,4,22,0.00
2012-5-25,92,80,73,68,61,52,68,53,39,30.03,29.77,14,3,14,0.00
2012-5-26,92,80,70,69,60,51,65,50,40,30.10,29.95,11,2,13,0.00
2012-5-27,94,82,68,68,63,58,84,55,32,30.03,29.86,15,2,15,0.00
2012-5-28,92,83,74,68,65,62,77,56,37,29.88,29.72,19,4,22,0.00
2012-5-29,84,76,68,69,60,47,95,61,28,29.82,29.68,30,2,30,0.12
2012-5-30,76,67,53,56,49,42,92,55,31,29.86,29.78,20,2,20,0.00
2012-5-31,75,60,49,59,51,45,94,74,42,29.92,29.69,18,2,18,0.29
2012-6-1,56,53,48,54,50,45,96,89,72,29.79,29.60,21,3,21,0.03
2012-6-2,72,59,45,55,49,44,97,73,40,29.81,29.75,21,3,26,0.15
2012-6-3,79,68,50,59,51,45,96,59,31,29.84,29.77,19,2,19,0.01
2012-6-4,81,70,58,57,51,45,85,54,30,29.82,29.73,18,2,18,0.00
2012-6-5,69,62,51,53,50,47,93,66,50,29.96,29.82,14,2,14,0.00
2012-6-6,78,64,46,53,47,42,94,60,29,30.05,29.96,13,1,13,0.00
2012-6-7,83,69,51,56,50,45,93,55,27,30.08,29.98,18,1,18,0.00
2012-6-8,85,71,51,55,48,41,91,50,22,30.07,29.90,12,1,13,0.00
2012-6-9,88,76,57,56,52,47,80,47,24,29.97,29.86,15,2,15,0.00
2012-6-10,90,79,60,62,58,53,82,51,32,29.99,29.89,16,2,16,0.00
2012-6-11,84,78,70,71,67,62,90,71,58,29.90,29.77,16,2,18,0.16
2012-6-12,82,73,60,67,52,42,91,52,26,30.06,29.80,19,3,19,0.00
2012-6-13,78,66,54,52,45,35,79,51,22,30.14,30.05,9,2,11,0.00
2012-6-14,85,69,53,50,45,36,76,46,18,30.14,30.01,11,1,11,0.00
2012-6-15,91,77,56,55,51,46,83,45,22,30.10,30.01,11,1,11,0.00
2012-6-16,92,80,65,71,64,54,81,59,36,30.08,29.88,20,2,20,0.00
2012-6-17,84,78,69,70,65,63,82,66,49,29.91,29.79,16,2,16,0.00
2012-6-18,92,82,66,69,65,61,91,59,37,29.85,29.75,23,5,25,0.00
2012-6-19,93,83,73,69,64,60,74,55,35,30.00,29.85,24,4,24,0.00
2012-6-20,92,84,72,66,62,58,77,50,33,30.07,29.91,19,4,19,0.00
2012-6-21,92,78,66,71,65,62,96,66,38,29.95,29.78,24,3,24,0.44
2012-6-22,85,73,60,69,59,51,98,67,33,29.94,29.88,16,1,16,0.01
2012-6-23,86,74,56,62,56,47,93,57,27,30.00,29.92,10,1,10,0.00
2012-6-24,90,81,66,63,59,52,83,50,30,29.97,29.84,16,2,16,0.00
2012-6-25,83,75,66,63,52,39,77,47,22,29.95,29.84,14,2,14,0.00
2012-6-26,81,68,50,52,47,43,89,51,28,30.04,29.91,13,1,13,0.00
2012-6-27,90,76,55,56,50,46,85,45,23,30.02,29.82,15,3,16,0.00
2012-6-28,101,88,74,74,65,54,61,48,38,29.84,29.69,21,4,22,0.00
2012-6-29,95,80,68,77,67,61,94,66,41,29.89,29.72,37,1,40,0.20
2012-6-30,82,78,74,72,71,70,87,78,71,29.84,29.80,10,0,10,0.32
2012-7-1,91,75,67,74,69,62,98,83,47,30.01,29.82,21,1,22,0.16
2012-7-2,92,79,65,73,69,64,98,73,47,30.00,29.88,12,1,12,0.01
2012-7-3,93,83,71,73,70,65,89,66,46,29.92,29.79,15,2,15,0.00
2012-7-4,98,87,76,75,72,70,84,64,41,29.88,29.80,16,2,16,0.00
2012-7-5,99,88,76,75,71,65,93,59,34,29.92,29.83,13,2,13,0.00
2012-7-6,100,90,76,78,74,68,86,62,44,29.92,29.84,12,1,13,0.00
2012-7-7,103,91,77,77,72,66,90,57,32,29.91,29.82,16,2,16,0.00
2012-7-8,85,80,72,73,66,60,86,64,47,29.97,29.86,12,1,13,0.00
2012-7-9,88,77,62,64,60,57,87,58,36,30.01,29.91,9,1,9,0.00
2012-7-10,89,79,64,65,59,54,81,53,32,30.02,29.95,11,1,13,0.00
2012-7-11,89,78,64,58,53,48,66,44,28,30.08,30.00,15,2,15,0.00
2012-7-12,94,79,64,62,56,53,72,47,27,30.07,29.97,13,1,13,0.00
2012-7-13,91,81,69,68,65,62,88,62,41,30.06,29.94,12,2,12,0.00
2012-7-14,88,78,70,72,69,66,95,76,54,30.05,29.93,13,2,13,0.27
2012-7-15,90,81,71,73,70,68,96,73,48,30.06,29.92,16,2,18,0.02
2012-7-16,95,84,70,73,68,63,92,61,38,29.99,29.82,15,2,15,0.00
2012-7-17,97,84,76,76,72,68,86,69,42,29.86,29.76,19,1,19,0.02
2012-7-18,98,83,75,75,72,68,88,71,39,29.89,29.80,15,2,15,0.00
2012-7-19,85,76,71,77,72,69,97,88,73,29.94,29.76,13,1,13,0.64
2012-7-20,80,72,64,72,65,61,97,82,55,30.01,29.81,13,2,14,0.03
2012-7-21,87,73,58,67,61,57,98,70,40,30.09,30.00,10,1,10,0.01
2012-7-22,88,80,68,71,66,62,87,65,46,30.09,30.00,12,1,12,0.00
2012-7-23,95,86,75,75,70,63,70,60,46,30.02,29.84,21,3,21,0.00
2012-7-24,84,77,66,73,70,65,97,82,63,30.07,29.83,24,2,28,0.95
2012-7-25,95,82,69,78,70,58,93,68,56,29.91,29.61,14,3,14,0.00
2012-7-26,88,82,75,74,71,69,88,70,57,29.73,29.60,19,3,20,0.00
2012-7-27,86,76,68,72,68,64,94,79,51,29.86,29.69,15,2,16,0.26
2012-7-28,84,74,65,66,62,57,97,70,43,30.04,29.86,12,1,12,0.01
2012-7-29,86,73,60,65,59,53,97,65,33,30.08,29.95,9,1,9,0.00
2012-7-30,88,75,64,68,63,60,87,70,43,29.97,29.85,11,1,11,0.00
2012-7-31,88,78,67,71,66,62,91,70,53,29.96,29.80,15,2,18,0.01
2012-8-1,88,74,63,68,61,48,97,70,27,29.91,29.83,11,1,12,0.00
2012-8-2,92,76,58,67,60,55,95,62,30,29.88,29.77,10,1,10,0.00
2012-8-3,94,82,68,71,68,64,90,63,41,29.86,29.79,14,1,14,0.00
2012-8-4,90,77,70,78,72,68,97,86,60,29.89,29.76,14,2,18,1.19
2012-8-5,85,76,68,74,67,62,98,78,47,30.09,29.84,15,2,16,0.16
2012-8-6,85,70,55,62,57,51,97,67,35,30.13,29.98,8,0,8,0.00
2012-8-7,88,75,57,67,60,55,95,63,37,29.99,29.88,12,1,12,0.00
2012-8-8,92,81,67,71,65,61,82,61,40,29.91,29.84,15,1,15,0.00
2012-8-9,82,71,65,69,66,63,96,85,55,29.90,29.68,15,1,16,0.36
2012-8-10,71,65,58,64,59,52,96,83,58,29.85,29.67,25,4,30,0.01
2012-8-11,77,66,58,62,59,56,94,78,56,29.97,29.84,15,2,15,0.01
2012-8-12,77,66,53,62,57,52,98,75,45,30.03,29.96,8,0,9,0.00
2012-8-13,78,70,64,65,61,58,94,74,56,29.96,29.84,10,1,10,0.08
2012-8-14,76,67,63,65,63,61,97,88,61,29.90,29.80,9,1,9,0.67
2012-8-15,84,71,60,66,62,58,97,75,43,29.95,29.89,11,1,14,0.00
2012-8-16,77,68,65,66,63,60,94,83,64,30.00,29.72,28,3,28,0.65
2012-8-17,77,69,58,65,60,54,97,75,48,29.95,29.85,13,2,13,0.06
2012-8-18,76,61,48,56,52,44,98,74,35,30.00,29.89,7,0,8,0.00
2012-8-19,79,67,56,58,53,46,92,65,33,29.93,29.85,11,1,11,0.00
2012-8-20,78,64,52,61,55,50,97,75,41,29.96,29.89,27,0,27,0.08
2012-8-21,80,67,53,61,55,50,98,70,36,30.06,29.95,8,1,8,0.00
2012-8-22,82,68,52,59,54,50,97,65,36,30.12,30.02,9,1,10,0.00
2012-8-23,86,69,55,63,56,53,96,69,34,30.11,30.02,10,1,10,0.00
2012-8-24,88,76,60,64,60,56,90,60,35,30.07,29.97,11,1,11,0.00
2012-8-25,92,79,65,68,61,52,84,58,29,30.05,29.98,11,1,11,0.00
2012-8-26,87,76,67,70,66,61,86,72,50,30.07,29.94,14,2,14,0.00
2012-8-27,85,75,63,72,69,60,98,82,56,29.99,29.92,18,2,18,1.57
2012-8-28,84,71,57,66,61,56,98,74,44,30.08,29.98,10,1,12,0.01
2012-8-29,82,70,58,64,60,57,98,76,45,30.06,29.98,9,0,9,0.00
2012-8-30,86,72,57,63,58,55,95,67,36,30.08,29.97,11,1,11,0.00
2012-8-31,88,77,62,74,69,57,91,78,62,30.08,29.99,18,2,18,0.00
2012-9-1,77,74,72,75,72,70,97,94,87,30.04,29.92,9,0,9,0.99
2012-9-2,80,74,71,76,72,70,97,94,82,29.93,29.80,12,2,18,0.71
2012-9-3,83,76,71,74,72,69,97,88,72,29.86,29.80,12,1,12,0.01
2012-9-4,87,76,68,75,71,67,99,87,62,29.86,29.78,9,0,9,0.00
2012-9-5,81,72,67,74,69,66,99,90,72,29.86,29.76,16,1,16,0.57
2012-9-6,87,75,64,72,67,63,98,78,56,29.89,29.81,10,1,10,0.01
2012-9-7,79,69,64,73,66,61,97,90,69,29.89,29.64,25,1,28,0.84
2012-9-8,72,64,55,65,55,49,97,76,45,29.85,29.63,16,2,18,0.15
2012-9-9,75,63,55,57,54,52,94,74,47,30.08,29.84,12,1,12,0.00
2012-9-10,76,62,50,57,51,46,97,71,37,30.20,30.08,8,0,8,0.00
2012-9-11,79,68,53,57,53,50,92,63,38,30.21,30.10,15,2,16,0.00
2012-9-19,58,58,57,43,42,41,58,55,54,30.00,29.98,13,3,14,0.00
2012-9-20,75,63,54,57,47,41,78,57,37,29.99,29.83,19,4,19,0.00
2012-9-21,69,56,46,53,46,39,95,74,34,29.94,29.71,14,1,15,0.32
2012-9-22,58,51,42,53,45,31,98,81,39,30.14,29.72,25,2,27,0.00
2012-9-23,61,48,38,45,38,34,96,72,39,30.24,30.14,16,1,16,0.00
2012-9-24,67,52,36,42,36,31,97,61,26,30.24,29.99,19,2,19,0.00
2012-9-25,65,59,52,62,53,40,97,79,56,30.00,29.87,18,2,18,0.13
2012-9-26,66,64,59,65,62,58,98,95,89,30.06,29.88,12,1,12,0.62
2012-9-27,73,62,55,64,58,53,98,87,67,30.12,30.05,10,1,11,0.01
2012-9-28,68,60,55,58,55,51,97,86,67,30.10,30.01,10,0,10,0.00
2012-9-29,72,58,46,54,48,44,98,73,38,30.08,29.92,11,1,11,0.00
2012-9-30,68,56,43,52,46,42,98,72,40,29.92,29.86,12,1,12,0.01
2012-10-1,64,55,44,52,47,42,94,76,53,29.91,29.74,11,1,13,0.03
2012-10-2,60,54,53,60,53,50,98,96,90,29.86,29.72,14,2,18,0.44
2012-10-3,66,60,56,60,56,53,98,88,66,30.05,29.86,16,2,19,0.00
2012-10-4,78,65,52,59,55,50,94,71,43,30.12,30.02,21,3,21,0.00
2012-10-5,65,48,41,58,45,40,96,92,73,30.12,30.02,14,1,14,0.80
2012-10-6,51,44,35,40,36,32,95,74,52,30.16,30.05,13,2,13,0.01
2012-10-7,48,43,35,38,34,30,96,72,49,30.18,30.12,16,1,16,0.00
2012-10-8,56,42,30,35,30,26,97,69,33,30.24,30.10,14,1,14,0.00
2012-10-9,62,51,38,42,38,32,85,63,42,30.13,29.88,20,3,20,0.00
2012-10-10,53,46,35,45,36,27,92,71,41,30.21,29.85,22,4,22,0.01
2012-10-11,60,44,34,39,34,31,90,70,37,30.26,30.11,20,2,20,0.00
2012-10-12,56,49,39,42,34,25,79,59,32,30.40,30.16,14,1,15,0.00
2012-10-13,66,54,39,63,47,29,96,77,64,30.32,29.90,15,3,16,0.35
2012-10-14,73,65,53,63,59,49,93,80,60,29.91,29.51,34,8,34,0.14
2012-10-15,56,49,39,50,44,38,94,84,61,29.96,29.72,15,3,16,0.00
2012-10-16,65,52,35,46,41,34,98,70,45,29.98,29.70,16,3,16,0.01
2012-10-17,72,62,55,56,51,46,92,69,45,29.70,29.41,27,6,27,0.27
2012-10-18,63,55,48,54,43,32,95,67,34,29.61,29.34,26,5,26,0.38
2012-10-19,51,47,46,46,44,41,94,88,77,29.64,29.50,19,4,19,0.23
2012-10-20,54,48,41,45,43,39,95,85,64,29.96,29.64,16,2,18,0.00
2012-10-21,67,52,36,51,45,35,98,78,54,30.10,29.95,11,2,12,0.00
2012-10-22,74,62,53,62,55,48,93,77,56,30.04,29.92,14,2,14,0.03
2012-10-23,66,63,59,60,58,55,96,84,69,30.01,29.91,19,3,19,0.71
2012-10-24,78,68,61,63,57,54,81,69,53,30.02,29.92,16,3,16,0.00
2012-10-25,76,68,61,60,56,54,76,66,52,29.95,29.81,21,5,23,0.00
2012-10-26,69,47,42,57,41,36,94,79,61,30.22,29.83,23,4,23,0.09
2012-10-27,53,44,35,37,33,30,86,67,42,30.22,30.12,16,3,16,0.00
2012-10-28,49,42,37,36,33,31,86,70,55,30.18,30.11,14,3,15,0.00
2012-10-29,47,42,35,32,28,23,79,59,38,30.14,29.83,26,7,26,0.00
2012-10-30,42,41,40,38,35,26,92,81,51,29.83,29.59,32,9,32,0.46
2012-10-31,41,39,37,38,36,35,95,88,79,29.81,29.65,19,6,19,0.13
2012-11-1,53,44,32,36,32,26,81,65,39,29.87,29.79,20,4,21,0.00
2012-11-2,50,41,32,35,33,30,94,74,54,30.10,29.84,15,2,16,0.00
2012-11-3,42,37,31,35,32,29,94,85,72,30.19,30.10,10,0,10,0.00
2012-11-4,42,37,28,33,30,26,95,77,61,30.22,30.16,10,1,11,0.00
2012-11-5,45,34,23,32,27,22,95,79,56,30.22,30.13,11,1,12,0.01
2012-11-6,49,39,24,36,31,22,94,73,51,30.13,29.91,10,1,10,0.00
2012-11-7,50,41,31,37,33,28,90,75,50,30.14,29.90,12,2,12,0.01
2012-11-8,49,38,27,39,32,25,96,82,62,30.24,30.14,10,1,11,0.00
2012-11-9,60,48,32,44,39,30,95,73,50,30.19,30.04,18,3,19,0.01
2012-11-10,69,59,49,52,46,41,75,63,52,30.10,30.00,21,5,21,0.00
2012-11-11,68,61,52,51,46,42,71,59,47,30.10,29.88,33,8,33,0.00
2012-11-12,62,39,31,54,34,26,96,82,60,30.35,29.90,25,5,25,0.79
2012-11-13,39,32,26,28,25,21,90,75,52,30.53,30.34,13,2,13,0.00
2012-11-14,42,32,23,31,27,21,93,80,62,30.57,30.41,12,1,12,0.00
2012-11-15,45,33,24,33,28,23,95,83,62,30.42,30.35,6,0,7,0.01
2012-11-16,51,40,24,36,30,22,95,72,45,30.50,30.39,7,0,7,0.00
2012-11-17,55,40,25,39,32,24,95,75,50,30.59,30.47,9,1,9,0.01
2012-11-18,58,45,33,38,34,30,88,68,42,30.48,30.36,7,1,7,0.00
2012-11-19,59,45,32,38,33,28,86,64,41,30.37,30.15,7,0,7,0.00
2012-11-20,54,48,45,44,40,36,89,74,62,30.15,30.05,7,0,7,0.01
2012-11-21,58,46,34,48,41,33,97,84,64,30.25,30.13,7,0,7,0.00
2012-11-22,62,52,38,48,43,36,97,74,52,30.18,29.88,24,5,24,0.01
2012-11-23,55,36,28,51,29,20,94,76,66,30.17,29.85,37,8,37,0.13
2012-11-24,30,29,27,23,22,20,79,75,69,30.24,30.08,14,4,15,0.00
2012-11-25,46,36,28,32,28,22,84,72,54,30.09,29.88,16,4,18,0.00
2012-11-26,45,36,27,33,29,25,92,78,52,30.31,30.03,11,1,11,0.00
2012-11-27,39,32,28,30,26,23,95,78,54,30.41,30.29,9,0,10,0.02
2012-11-28,42,34,27,28,26,23,87,72,55,30.41,30.29,13,2,14,0.00
2012-11-29,49,38,28,33,29,24,85,71,52,30.37,30.18,16,3,20,0.00
2012-11-30,56,46,38,39,34,30,84,66,48,30.18,30.08,14,2,14,0.00
2012-12-1,62,48,38,52,42,35,93,80,64,30.19,30.01,20,3,20,0.00
2012-12-2,61,57,53,57,54,47,97,88,66,30.07,29.94,19,4,21,0.18
2012-12-3,67,61,56,62,58,55,99,91,78,30.07,29.92,20,5,20,0.00
2012-12-4,61,50,41,56,47,38,95,88,79,30.18,29.92,20,3,20,0.10
2012-12-5,42,37,30,38,30,26,88,79,65,30.40,30.18,12,2,12,0.00
2012-12-6,46,37,28,39,32,25,88,81,74,30.29,29.95,10,2,10,0.00
2012-12-7,48,45,43,46,43,39,97,93,84,29.97,29.80,10,1,10,0.29
2012-12-8,47,44,38,46,42,36,98,94,90,30.07,29.79,15,2,15,0.01
2012-12-9,51,44,38,51,43,36,99,97,92,30.06,29.66,20,4,20,0.29
2012-12-10,46,34,31,44,32,28,96,92,88,29.93,29.69,21,6,24,0.00
2012-12-11,35,31,30,30,26,24,96,82,67,30.22,29.93,16,4,16,0.01
2012-12-12,42,33,25,30,26,22,91,77,55,30.39,30.22,12,2,12,0.00
2012-12-13,45,36,27,31,27,24,88,70,49,30.40,30.19,16,4,16,0.00
2012-12-14,50,40,32,35,30,26,82,69,55,30.27,30.11,12,1,12,0.00
2012-12-15,52,46,43,49,39,30,92,77,58,30.12,29.66,22,6,22,0.06
2012-12-16,53,49,41,51,46,39,94,90,81,29.72,29.60,18,4,19,0.00
2012-12-17,42,40,37,39,37,36,95,91,88,29.72,29.58,10,1,10,0.06
2012-12-18,42,38,36,38,35,32,96,90,81,29.83,29.64,19,4,19,0.02
2012-12-19,43,41,37,39,37,35,92,88,83,30.06,29.71,18,2,20,0.00
2012-12-20,53,43,32,50,40,31,98,91,78,29.93,29.12,33,8,33,0.71
2012-12-21,33,30,26,32,28,23,98,92,87,30.09,29.29,27,9,32,0.00
2012-12-22,28,25,22,24,22,19,92,88,81,30.25,30.04,16,4,18,0.01
2012-12-23,38,29,21,32,25,18,95,86,73,30.04,29.92,6,0,7,0.04
2012-12-24,33,31,27,32,29,25,95,92,89,30.02,29.79,11,2,13,0.05
2012-12-25,33,31,29,29,27,26,91,86,80,30.25,30.02,16,4,18,0.00
2012-12-26,31,29,28,29,27,25,96,92,84,30.13,29.74,26,8,26,0.00
2012-12-27,34,27,24,28,24,22,95,89,76,30.18,29.97,19,2,19,0.01
2012-12-28,32,29,23,27,26,22,95,89,83,30.17,29.87,9,1,9,0.00
2012-12-29,32,28,24,30,27,21,96,94,88,30.21,29.81,19,3,21,0.01
2012-12-30,27,22,16,22,18,13,91,85,78,30.43,30.20,20,5,20,0.06
2012-12-31,34,30,24,31,27,20,95,87,75,30.28,30.05,19,6,19,0.01
2013-1-1,32,26,19,30,23,17,94,86,76,30.18,30.05,10,1,10,0.03